Riverton, WY

12:50 PM MDT on May 28, 2017 (GMT -0600)
Riverton Regional

Weather History for KRIW - August, 2013

Change the Weather History Date:

Tuesday, August 27, 2013

  Actual Average Record
Temperature  
Mean Temperature 73 °F 67 °F  
Max Temperature 86 °F 82 °F 95 °F (2011)
Min Temperature 59 °F 52 °F 46 °F (2008)
Degree Days  
Heating Degree Days 0 2  
Month to date heating degree days 0 18  
Since 1 June heating degree days 52 149  
Since 1 July heating degree days 0 30  
Cooling Degree Days 8 3  
Month to date cooling degree days 234 162  
Year to date cooling degree days 691 457  
Since 1 June cooling degree days 678 448  
Growing Degree Days 23 (Base 50)    
Moisture  
Dew Point 45 °F    
Average Humidity 40    
Maximum Humidity 56    
Minimum Humidity 23    
Precipitation  
Precipitation 0.00 in 0.02 in 0.07 in (2014)
Month to date precipitation 0.02 0.49  
Year to date precipitation 4.05 6.74  
Snow  
Snow 0.00 in - - ()
Month to date snowfall 0.0  
Since 1 June snowfall 0.0  
Since 1 July snowfall 0.0  
Snow Depth 0.00 in    
Sea Level Pressure  
Sea Level Pressure 29.94 in    
Wind  
Wind Speed 6 mph (WNW)    
Max Wind Speed 26 mph    
Max Gust Speed 32 mph    
Visibility 10 miles    
Events      
T = Trace of Precipitation, MM = Missing Value Source: NWS Daily Summary

Daily Weather History Graph

Daily Weather History Graph

Search for Another Location

Airport or City:

Trip Planner

Search our weather history database for the weather conditions in past years. The results will help you decide how hot, cold, wet, or windy it might be!

Date:

Astronomy

Aug. 27, 2013 Rise Set
Actual Time 6:33 AM MDT 7:56 PM MDT
Civil Twilight 6:03 AM MDT 8:26 PM MDT
Nautical Twilight 5:27 AM MDT 9:01 PM MDT
Astronomical Twilight 4:49 AM MDT 9:39 PM MDT
Moon 11:40 PM MDT (8/27) 1:45 PM MDT (8/27)
Length of Visible Light 14h 22m
Length of Day
13h 23m
Waning Gibbous, 56% of the Moon is Illuminated
Aug 27
Waning Gibbous
Aug 28
Last Quarter
Sep 5
New
Sep 12
First Quarter
Sep 19
Full

Hourly Weather History & Observations

Time (MDT) Temp. Dew Point Humidity Pressure Visibility Wind Dir Wind Speed Gust Speed Precip Events Conditions
12:53 AM 64.9 °F 46.9 °F 52% 29.96 in 10.0 mi WNW 11.5 mph - N/A   Partly Cloudy
1:53 AM 64.0 °F 45.0 °F 50% 29.96 in 10.0 mi WSW 6.9 mph - N/A   Clear
2:53 AM 62.1 °F 45.0 °F 53% 29.96 in 10.0 mi Calm Calm - N/A   Clear
3:53 AM 64.0 °F 45.0 °F 50% 29.95 in 10.0 mi WSW 5.8 mph - N/A   Clear
4:53 AM 63.0 °F 45.0 °F 52% 29.96 in 10.0 mi WNW 3.5 mph - N/A   Clear
5:53 AM 63.0 °F 44.1 °F 50% 29.97 in 10.0 mi Calm Calm - N/A   Clear
6:53 AM 64.0 °F 45.0 °F 50% 29.98 in 10.0 mi West 3.5 mph - N/A   Clear
7:53 AM 66.0 °F 45.0 °F 47% 30.01 in 10.0 mi SW 4.6 mph - N/A   Clear
8:53 AM 70.0 °F 45.0 °F 41% 30.01 in 10.0 mi SW 3.5 mph - N/A   Clear
9:53 AM 72.0 °F 45.0 °F 38% 30.01 in 10.0 mi South 5.8 mph - N/A   Clear
10:53 AM 75.0 °F 45.0 °F 34% 30.00 in 10.0 mi Calm Calm - N/A   Clear
11:53 AM 80.1 °F 46.0 °F 30% 29.97 in 10.0 mi East 6.9 mph - N/A   Clear
12:53 PM 82.0 °F 44.1 °F 26% 29.95 in 10.0 mi Variable 5.8 mph - N/A   Clear
1:53 PM 82.9 °F 43.0 °F 24% 29.93 in 10.0 mi East 4.6 mph - N/A   Clear
2:53 PM 82.9 °F 43.0 °F 24% 29.91 in 10.0 mi East 4.6 mph - N/A   Clear
3:53 PM 84.0 °F 43.0 °F 24% 29.89 in 10.0 mi ENE 6.9 mph - N/A   Mostly Cloudy
4:53 PM 84.0 °F 43.0 °F 24% 29.88 in 10.0 mi NE 5.8 mph - N/A   Mostly Cloudy
5:53 PM 84.0 °F 43.0 °F 24% 29.87 in 10.0 mi East 5.8 mph - N/A   Partly Cloudy
6:53 PM 82.9 °F 45.0 °F 26% 29.87 in 10.0 mi East 4.6 mph - N/A   Mostly Cloudy
7:53 PM 80.1 °F 43.0 °F 27% 29.88 in 10.0 mi NE 4.6 mph - N/A   Scattered Clouds
8:53 PM 78.1 °F 39.9 °F 25% 29.90 in 10.0 mi WNW 18.4 mph 26.5 mph N/A   Scattered Clouds
9:53 PM 71.1 °F 48.9 °F 45% 29.93 in 10.0 mi WNW 19.6 mph - N/A   Clear
10:53 PM 68.0 °F 50.0 °F 52% 29.94 in 10.0 mi NW 13.8 mph - N/A   Clear
11:53 PM 64.9 °F 48.9 °F 56% 29.94 in 10.0 mi NW 8.1 mph - N/A   Clear